Total_Precipitation_Accumulation
0.72 0.75 0.75 0.78 0.82 0.83 0.80 0.74 0.70 0.65 0.63 0.62 0.58 0.56 0.54 0.53 0.52 0.51 0.49 0.45 0.42 0.39 0.37 0.36 0.36 0.34 0.34 0.36 0.40 0.50 0.61 0.72 0.80 0.62 0.51 0.53 0.58 0.55 0.54 0.56 0.55 0.58 0.69
0.58 0.60 0.59 0.59 0.58 0.60 0.63 0.64 0.60 0.59 0.58 0.55 0.50 0.47 0.45 0.41 0.38 0.35 0.32 0.30 0.30 0.30 0.30 0.32 0.32 0.33 0.32 0.33 0.38 0.46 0.56 0.69 0.84 0.77 0.63 0.64 0.64 0.62 0.68 0.69 0.60 0.53 0.60
0.51 0.51 0.50 0.51 0.50 0.50 0.51 0.50 0.49 0.48 0.49 0.46 0.42 0.40 0.37 0.36 0.33 0.29 0.28 0.26 0.25 0.26 0.28 0.29 0.30 0.34 0.37 0.39 0.46 0.52 0.57 0.64 0.80 0.85 0.75 0.75 0.79 0.82 0.92 0.84 0.71 0.67 0.54
0.49 0.48 0.48 0.50 0.50 0.47 0.45 0.44 0.42 0.42 0.43 0.45 0.43 0.36 0.30 0.26 0.25 0.24 0.21 0.21 0.22 0.24 0.26 0.30 0.32 0.38 0.44 0.50 0.52 0.56 0.62 0.69 0.75 0.84 0.83 0.86 0.90 0.95 1.00 0.98 0.82 0.72 0.64
0.48 0.48 0.52 0.54 0.54 0.52 0.50 0.48 0.47 0.45 0.41 0.41 0.39 0.36 0.30 0.24 0.20 0.16 0.14 0.16 0.21 0.25 0.28 0.29 0.32 0.40 0.47 0.47 0.44 0.48 0.61 0.75 0.79 0.88 0.90 0.88 0.86 0.95 0.97 0.84 0.74 0.65 0.59
0.57 0.58 0.59 0.57 0.54 0.53 0.51 0.50 0.51 0.49 0.43 0.38 0.36 0.32 0.28 0.20 0.18 0.16 0.14 0.17 0.22 0.28 0.31 0.30 0.27 0.28 0.27 0.29 0.36 0.43 0.54 0.73 0.97 1.10 1.02 0.93 0.80 0.81 0.83 0.77 0.75 0.70 0.64
0.71 0.67 0.60 0.54 0.53 0.51 0.46 0.47 0.47 0.43 0.38 0.34 0.30 0.27 0.26 0.20 0.15 0.13 0.13 0.17 0.25 0.33 0.35 0.33 0.25 0.19 0.23 0.27 0.31 0.36 0.47 0.63 0.87 1.16 1.21 0.97 0.88 0.83 0.85 0.85 0.86 0.87 0.80
0.70 0.65 0.55 0.47 0.47 0.48 0.46 0.43 0.39 0.35 0.33 0.33 0.30 0.26 0.25 0.17 0.12 0.11 0.12 0.16 0.25 0.29 0.31 0.31 0.32 0.30 0.26 0.27 0.30 0.37 0.50 0.66 0.76 0.84 1.11 0.97 0.78 0.76 0.79 0.80 0.85 0.86 0.78
0.66 0.54 0.43 0.37 0.39 0.39 0.37 0.35 0.34 0.33 0.32 0.28 0.23 0.23 0.24 0.20 0.11 0.09 0.10 0.16 0.21 0.23 0.25 0.24 0.22 0.26 0.25 0.35 0.46 0.63 0.76 0.91 0.89 1.00 1.15 1.12 1.00 0.91 0.78 0.75 0.86 0.86 0.82
0.47 0.39 0.34 0.31 0.28 0.26 0.26 0.28 0.29 0.30 0.27 0.22 0.19 0.21 0.21 0.18 0.09 0.06 0.07 0.13 0.20 0.22 0.25 0.28 0.23 0.21 0.28 0.44 0.64 0.85 0.97 1.08 0.99 1.07 1.29 1.34 1.19 1.15 1.10 0.97 0.95 0.88 0.83
0.31 0.27 0.25 0.21 0.18 0.18 0.21 0.24 0.24 0.22 0.23 0.22 0.21 0.21 0.18 0.11 0.08 0.06 0.06 0.09 0.15 0.21 0.28 0.35 0.35 0.28 0.35 0.53 0.73 0.87 1.02 1.08 1.10 1.14 1.14 1.12 1.18 1.19 1.12 1.04 0.95 0.83 0.77
0.24 0.22 0.19 0.15 0.11 0.12 0.19 0.21 0.20 0.22 0.22 0.20 0.21 0.20 0.17 0.14 0.07 0.04 0.04 0.05 0.08 0.21 0.37 0.40 0.41 0.37 0.43 0.62 0.78 0.98 1.17 1.27 1.22 1.19 1.02 0.91 0.87 0.87 0.89 0.82 0.74 0.66 0.62
0.24 0.24 0.21 0.17 0.15 0.13 0.16 0.18 0.18 0.19 0.17 0.15 0.16 0.17 0.16 0.17 0.11 0.03 0.03 0.04 0.07 0.17 0.32 0.38 0.41 0.43 0.60 0.92 1.08 1.22 1.35 1.42 1.38 1.19 0.99 0.88 0.76 0.67 0.66 0.69 0.67 0.59 0.54
0.29 0.26 0.25 0.24 0.20 0.15 0.14 0.11 0.12 0.13 0.14 0.14 0.16 0.17 0.18 0.18 0.12 0.08 0.09 0.11 0.12 0.18 0.32 0.45 0.55 0.62 0.80 1.09 1.30 1.46 1.50 1.38 1.18 1.05 0.93 0.86 0.74 0.65 0.64 0.58 0.55 0.53 0.55
0.26 0.21 0.19 0.17 0.17 0.16 0.13 0.06 0.05 0.07 0.05 0.08 0.11 0.12 0.15 0.14 0.08 0.08 0.10 0.12 0.14 0.18 0.30 0.48 0.64 0.77 0.97 1.16 1.32 1.38 1.36 1.25 1.11 0.91 0.81 0.83 0.81 0.73 0.67 0.56 0.48 0.44 0.48
0.22 0.18 0.13 0.10 0.10 0.11 0.16 0.12 0.03 0.02 0.02 0.02 0.04 0.05 0.07 0.07 0.06 0.07 0.10 0.13 0.17 0.24 0.34 0.51 0.62 0.73 0.91 1.13 1.25 1.23 1.14 1.06 0.95 0.82 0.75 0.72 0.72 0.68 0.64 0.55 0.45 0.42 0.46
0.17 0.14 0.08 0.07 0.08 0.09 0.14 0.20 0.18 0.10 0.05 0.05 0.03 0.04 0.04 0.04 0.05 0.07 0.11 0.17 0.19 0.25 0.35 0.51 0.62 0.73 0.89 1.04 1.11 1.09 1.05 0.95 0.85 0.77 0.72 0.65 0.60 0.56 0.50 0.45 0.41 0.41 0.40
0.09 0.06 0.05 0.07 0.07 0.08 0.11 0.13 0.16 0.20 0.23 0.20 0.10 0.05 0.04 0.06 0.07 0.08 0.11 0.16 0.22 0.26 0.39 0.54 0.64 0.71 0.78 0.85 0.92 0.97 0.99 0.91 0.79 0.73 0.71 0.66 0.58 0.50 0.42 0.37 0.36 0.32 0.32
0.06 0.09 0.08 0.06 0.05 0.06 0.07 0.09 0.10 0.13 0.17 0.20 0.17 0.11 0.08 0.10 0.12 0.15 0.17 0.21 0.28 0.35 0.44 0.55 0.62 0.67 0.69 0.69 0.75 0.81 0.83 0.82 0.74 0.69 0.67 0.64 0.57 0.49 0.39 0.31 0.26 0.16 0.20
0.04 0.02 0.03 0.04 0.03 0.04 0.04 0.06 0.07 0.10 0.14 0.18 0.19 0.16 0.16 0.23 0.28 0.29 0.25 0.23 0.27 0.35 0.43 0.50 0.55 0.59 0.57 0.57 0.58 0.62 0.65 0.65 0.62 0.59 0.56 0.54 0.46 0.36 0.30 0.24 0.21 0.20 0.21
0.03 0.01 0.01 0.02 0.03 0.03 0.03 0.04 0.06 0.08 0.13 0.18 0.17 0.14 0.20 0.28 0.34 0.34 0.33 0.31 0.33 0.37 0.40 0.42 0.44 0.46 0.45 0.44 0.44 0.45 0.49 0.53 0.54 0.55 0.52 0.46 0.37 0.29 0.23 0.19 0.15 0.13 0.14
0.01 0.01 0.01 0.02 0.02 0.01 0.01 0.03 0.05 0.07 0.09 0.13 0.15 0.15 0.22 0.26 0.30 0.34 0.36 0.38 0.38 0.38 0.37 0.36 0.37 0.38 0.37 0.37 0.36 0.36 0.39 0.42 0.48 0.52 0.52 0.45 0.34 0.25 0.19 0.14 0.12 0.11 0.10
0.00 0.01 0.01 0.01 0.01 0.00 0.01 0.02 0.04 0.05 0.07 0.09 0.11 0.14 0.20 0.27 0.33 0.37 0.39 0.38 0.38 0.37 0.33 0.30 0.32 0.34 0.33 0.30 0.29 0.31 0.33 0.36 0.42 0.48 0.51 0.44 0.32 0.23 0.17 0.15 0.13 0.12 0.08
0.00 0.00 0.00 0.00 0.00 0.00 0.01 0.02 0.02 0.03 0.05 0.07 0.10 0.13 0.18 0.26 0.33 0.40 0.43 0.41 0.39 0.38 0.35 0.33 0.32 0.31 0.27 0.23 0.21 0.20 0.21 0.26 0.35 0.43 0.43 0.40 0.30 0.21 0.14 0.13 0.12 0.09 0.08
0.00 0.01 0.00 0.00 0.00 0.00 0.01 0.01 0.01 0.02 0.03 0.04 0.06 0.08 0.12 0.16 0.22 0.30 0.39 0.43 0.43 0.43 0.39 0.37 0.36 0.32 0.26 0.19 0.14 0.12 0.17 0.24 0.29 0.33 0.37 0.35 0.26 0.20 0.15 0.13 0.10 0.06 0.06
0.00 0.00 0.00 0.00 0.00 0.00 0.00 0.01 0.01 0.01 0.01 0.02 0.03 0.04 0.05 0.08 0.12 0.18 0.26 0.32 0.37 0.42 0.46 0.49 0.46 0.36 0.26 0.19 0.17 0.17 0.18 0.19 0.19 0.20 0.25 0.28 0.21 0.17 0.15 0.13 0.07 0.05 0.05